GW7312 Weather Reports


time (UTC)temp
C
wind
direction
speed
KPH
gust
KPH
rain 1hr
cm
rain 24hr
cm
rain mn
cm
humidity
%
barometer
mb
20260505101516 11 0.0 0.0 0.00 0.00 0.00 93 1013.1
20260505100517 11 0.0 0.0 0.00 0.00 0.00 93 1013.0
20260505095517 11 0.0 0.0 0.00 0.00 0.00 93 1013.0
20260505094516 11 0.0 0.0 0.00 0.00 0.00 92 1012.9
20260505093556 11 0.0 0.0 0.00 0.00 0.00 92 1012.6
20260505092557 11 0.0 0.0 0.00 0.00 0.00 92 1012.6
20260505091517 11 0.0 0.0 0.00 0.00 0.00 91 1012.4
20260505090556 11 0.0 0.0 0.00 0.00 0.00 91 1012.4
20260505085517 11 0.0 0.0 0.00 0.00 0.00 91 1012.5
20260505084516 11 0.0 0.0 0.00 0.00 0.00 90 1012.3
20260505083516 11 0.0 0.0 0.00 0.00 0.00 90 1012.4
20260505082516 11 0.0 0.0 0.00 0.00 0.00 90 1012.3
20260505081517 11 0.0 0.0 0.00 0.00 0.00 89 1012.3
20260505080516 12 0.0 0.0 0.00 0.00 0.00 89 1012.2
20260505075516 12 0.0 0.0 0.00 0.00 0.00 88 1012.2
20260505074556 12 0.0 0.0 0.00 0.00 0.00 88 1012.2
20260505073516 12 0.0 0.0 0.00 0.00 0.00 87 1012.2
20260505072556 12 0.0 0.0 0.00 0.00 0.00 87 1012.0
20260505071516 12 0.0 0.0 0.00 0.00 0.00 86 1011.9
20260505070516 12 0.0 0.0 0.00 0.00 0.00 86 1011.9
20260505065517 12 0.0 0.0 0.00 0.00 0.00 85 1011.7
20260505064557 13 0.0 0.0 0.00 0.00 0.00 84 1011.7
20260505063517 13 0.0 0.0 0.00 0.00 0.00 83 1011.6
20260505062517 13 0.0 0.0 0.00 0.00 0.00 82 1011.5
20260505061517 13 0.0 0.0 0.00 0.00 0.00 82 1011.3
20260505060517 13 0.0 0.0 0.00 0.00 0.00 81 1011.3
20260505055537 13 0.0 0.0 0.00 0.00 0.00 80 1011.2
20260505054517 14 0.0 0.0 0.00 0.00 0.00 79 1010.9
20260505053517 14 0.0 0.0 0.00 0.00 0.00 80 1011.0
20260505052517 14 0.0 0.0 0.00 0.00 0.00 78 1011.0
20260505051517 15 0.0 0.0 0.00 0.00 0.00 77 1010.7
20260505050517 15 0.0 0.0 0.00 0.00 0.00 77 1010.5
20260505041517 16 0.0 0.0 0.00 0.00 0.00 72 1010.2
20260505040517 16 0.0 0.0 0.00 0.00 0.00 72 1010.1
20260505035517 16 0.0 0.0 0.00 0.00 0.00 72 1010.0
20260505034517 17 0.0 0.0 0.00 0.00 0.00 67 1009.9
20260505033557 17 0.0 0.0 0.00 0.00 0.00 69 1009.7
20260505032517 17 0.0 0.0 0.00 0.00 0.00 65 1009.5
20260505031516 18 0.0 0.0 0.00 0.00 0.00 65 1009.6
20260505030517 18 0.0 0.0 0.00 0.00 0.00 63 1009.4
20260505025516 19 0.0 0.0 0.00 0.00 0.00 60 1009.4
20260505024517 19 0.0 0.0 0.00 0.00 0.00 58 1009.3
20260505023557 20 0.0 0.0 0.00 0.00 0.00 58 1009.2
20260505022516 20 0.0 0.0 0.00 0.00 0.00 53 1009.1
20260505021516 20 0.0 0.0 0.00 0.00 0.00 54 1009.2
20260505020517 21 0.0 0.0 0.00 0.00 0.00 51 1009.3
20260505015516 21 0.0 0.0 0.00 0.00 0.00 49 1009.2
20260505014517 21 0.0 0.0 0.00 0.00 0.00 50 1009.4
20260505013516 22 0.0 0.0 0.00 0.00 0.00 49 1009.5
20260505012516 22 0.0 0.0 0.00 0.00 0.00 53 1009.5
20260505011518 22 0.0 0.0 0.00 0.00 0.00 52 1009.5
20260505010557 23 0.0 0.0 0.00 0.00 0.00 49 1009.4
20260505005516 23 0.0 0.0 0.00 0.00 0.00 48 1009.6
20260505004517 24 0.0 3.2 0.00 0.00 0.00 46 1009.6
20260505003557 24 0.0 0.0 0.00 0.00 0.00 46 1009.6
20260505002516 25 0.0 0.0 0.00 0.00 0.00 47 1009.5
20260505001516 26 0.0 0.0 0.00 0.00 0.00 46 1009.4
20260505000516 27 0.0 0.0 0.00 0.00 0.00 45 1009.5
20260504235556 27 0.0 0.0 0.00 0.00 0.00 44 1009.5
20260504234516 27 0.0 0.0 0.00 0.00 0.00 43 1009.5
20260504233516 27 0.0 0.0 0.00 0.00 0.00 44 1009.4
20260504232516 27 0.0 1.6 0.00 0.00 0.00 43 1009.4
20260504231516 27 0.0 1.6 0.00 0.00 0.00 41 1009.4
20260504230521 28 0.0 1.6 0.00 0.00 0.00 43 1009.4
20260504225712 27 0.0 1.6 0.00 0.00 0.00 45 1009.6
20260504224516 28 0.0 4.8 0.00 0.00 0.00 41 1009.8
20260504223516 28 0.0 3.2 0.00 0.00 0.00 41 1009.8
20260504222516 28 0.0 3.2 0.00 0.00 0.00 38 1009.8
20260504221516 28 0.0 3.2 0.00 0.00 0.00 39 1010.0
20260504220516 28 0.0 1.6 0.00 0.00 0.00 36 1010.1
20260504215516 28 0.0 1.6 0.00 0.00 0.00 42 1010.2
20260504214556 27 0.0 1.6 0.00 0.00 0.00 42 1010.3
20260504213516 27 0.0 4.8 0.00 0.00 0.00 42 1010.4
20260504212516 27 0.0 3.2 0.00 0.00 0.00 44 1010.3
20260504211521 26 270 1.6 6.4 0.00 0.00 0.00 50 1010.3
20260504210516 27 0.0 1.6 0.00 0.00 0.00 45 1010.4
20260504205516 27 0.0 3.2 0.00 0.00 0.00 44 1010.5
20260504204516 27 0.0 3.2 0.00 0.00 0.00 44 1010.5
20260504203521 27 0.0 1.6 0.00 0.00 0.00 46 1010.5
20260504202516 26 0.0 3.2 0.00 0.00 0.00 44 1010.6
20260504201516 27 0.0 0.0 0.00 0.00 0.00 42 1010.6
20260504200556 26 0.0 1.6 0.00 0.00 0.00 44 1010.5
20260504195516 26 0.0 4.8 0.00 0.00 0.00 44 1010.5
20260504194556 26 0.0 1.6 0.00 0.00 0.00 42 1010.4
20260504193515 26 0.0 1.6 0.00 0.00 0.00 41 1010.6
20260504192531 26 0.0 0.0 0.00 0.00 0.00 44 1010.6
20260504170554 21 0.0 1.6 0.00 0.00 0.00 54 1011.0
20260504150517 12 0.0 0.0 0.00 0.00 0.00 81 1010.1
20260504140517 11 0.0 0.0 0.00 0.00 0.00 80 1009.8
20260504130557 11 0.0 0.0 0.00 0.00 0.00 78 1009.4
20260504110517 12 0.0 0.0 0.00 0.00 0.00 77 1009.4